Avoca, PA

10:05 PM EST on November 12, 2019 (GMT -0500)
Wilkes-Barre-Scranton International

Weather History for KAVP - September, 2019

Change the Weather History Date:

Monday, September 23, 2019

  Actual Average Record
Temperature  
Mean Temperature 76 °F 59 °F  
Max Temperature 88 °F 70 °F 91 °F (1914)
Min Temperature 64 °F 49 °F 33 °F (1904)
Degree Days  
Heating Degree Days 0 6  
Month to date heating degree days 20 81  
Since 1 July heating degree days 21 107  
Cooling Degree Days 11 1  
Month to date cooling degree days 81 47  
Year to date cooling degree days 820 571  
Growing Degree Days 26 (Base 50)    
Moisture  
Dew Point 64 °F    
Average Humidity 68    
Maximum Humidity 93    
Minimum Humidity 42    
Precipitation  
Precipitation 0.24 in 0.14 in 2.10 in (1923)
Month to date precipitation 0.79 3.09  
Year to date precipitation 38.45 28.12  
Sea Level Pressure  
Sea Level Pressure 29.85 in    
Wind  
Wind Speed 8 mph (SW)    
Max Wind Speed 20 mph    
Max Gust Speed 30 mph    
Visibility 8 miles    
Events Rain    
T = Trace of Precipitation, MM = Missing Value Source: NWS Daily Summary

Daily Weather History Graph

Daily Weather History Graph

Search for Another Location

Airport or City:

Astronomy

Sep. 23, 2019 Rise Set
Actual Time 6:51 AM EDT 6:58 PM EDT
Civil Twilight 6:23 AM EDT 7:26 PM EDT
Nautical Twilight 5:51 AM EDT 7:58 PM EDT
Astronomical Twilight 5:18 AM EDT 8:31 PM EDT
Moon 12:27 AM EDT (9/23) 3:54 PM EDT (9/23)
Length of Visible Light 13h 02m
Length of Day
12h 07m
Waning Crescent, 33% of the Moon is Illuminated
Sep 23
Waning Crescent
Sep 28
New
Oct 5
First Quarter
Oct 13
Full
Oct 21
Last Quarter

Hourly Weather History & Observations

Time (EDT) Temp. Heat Index Dew Point Humidity Pressure Visibility Wind Dir Wind Speed Gust Speed Precip Events Conditions
12:54 AM 71.1 °F - 64.0 °F 78% 29.96 in 9.0 mi South 3.5 mph - N/A   Clear
1:54 AM 71.1 °F - 64.0 °F 78% 29.94 in 9.0 mi Calm Calm - N/A   Clear
2:54 AM 66.9 °F - 64.0 °F 90% 29.93 in 8.0 mi Calm Calm - N/A   Clear
3:54 AM 68.0 °F - 64.0 °F 87% 29.91 in 8.0 mi Calm Calm - N/A   Clear
4:54 AM 66.0 °F - 63.0 °F 90% 29.91 in 6.0 mi SSE 3.5 mph - N/A   Clear
5:54 AM 66.9 °F - 63.0 °F 87% 29.91 in 7.0 mi Calm Calm - N/A   Clear
6:54 AM 66.0 °F - 64.0 °F 93% 29.91 in 3.0 mi Calm Calm - N/A   Partly Cloudy
7:54 AM 66.0 °F - 63.0 °F 90% 29.91 in 10.0 mi Calm Calm - N/A   Clear
8:54 AM 73.9 °F - 66.0 °F 76% 29.89 in 7.0 mi SW 4.6 mph - N/A   Clear
9:54 AM 79.0 °F - 66.0 °F 64% 29.88 in 9.0 mi WSW 9.2 mph - N/A   Clear
10:54 AM 82.9 °F 83.7 °F 62.1 °F 49% 29.87 in 10.0 mi WSW 13.8 mph 20.7 mph N/A   Clear
11:54 AM 84.0 °F 84.4 °F 61.0 °F 46% 29.85 in 10.0 mi WSW 12.7 mph 23.0 mph N/A   Clear
12:54 PM 86.0 °F 86.1 °F 61.0 °F 43% 29.83 in 10.0 mi SW 10.4 mph 19.6 mph N/A   Partly Cloudy
1:54 PM 82.9 °F 83.3 °F 61.0 °F 47% 29.81 in 10.0 mi SW 6.9 mph - N/A   Partly Cloudy
2:54 PM 82.9 °F 83.7 °F 62.1 °F 49% 29.80 in 10.0 mi SW 9.2 mph - N/A   Scattered Clouds
3:54 PM 82.0 °F 83.4 °F 64.0 °F 54% 29.78 in 10.0 mi WSW 12.7 mph - N/A   Mostly Cloudy
4:54 PM 81.0 °F 82.2 °F 63.0 °F 54% 29.76 in 10.0 mi SW 16.1 mph 25.3 mph N/A   Mostly Cloudy
5:54 PM 79.0 °F - 63.0 °F 58% 29.76 in 10.0 mi SW 17.3 mph 27.6 mph N/A   Mostly Cloudy
6:54 PM 77.0 °F - 64.0 °F 64% 29.77 in 10.0 mi WSW 13.8 mph - N/A   Overcast
7:54 PM 75.0 °F - 64.9 °F 71% 29.78 in 10.0 mi WSW 10.4 mph - N/A   Overcast
8:54 PM 73.0 °F - 64.9 °F 76% 29.78 in 10.0 mi WSW 10.4 mph - N/A   Mostly Cloudy
9:54 PM 72.0 °F - 66.0 °F 81% 29.80 in 3.0 mi WSW 12.7 mph - 0.00 in Rain Rain
9:58 PM 71.1 °F - 66.0 °F 84% 29.84 in 1.8 mi West 18.4 mph 24.2 mph 0.02 in Rain Heavy Rain
10:09 PM 69.1 °F - 64.9 °F 87% 29.84 in 3.0 mi WSW 9.2 mph 24.2 mph 0.19 in Rain Rain
11:54 PM 66.0 °F - 63.0 °F 90% 29.81 in 10.0 mi SW 8.1 mph - 0.01 in   Mostly Cloudy